This demonstration page uses our WeatherBlox Daily Observations layout. Learn more.

Left ArrowRight Arrow

39.51506, -84.39828

Hourly Observations for May 23, 2015

Temp ( °F °C ) Dew Point ( °F °C ) Humidity (%) Winds ( mph kmh ) Pressure ( in mb ) Visibility ( mi km ) Precip ( " mm )
12:15 am 00:15 Clear 55 12.5 49 9.3 81 81 Calm 30.30 1026 10 16 0.00 0.00
12:35 am 00:35 Clear 55 12.5 49 9.6 83 83 Calm 30.30 1026 10 16 0.00 0.00
12:55 am 00:55 Clear 52 11 47 8.3 84 84 Calm 30.30 1026 10 16 0.00 0.00
1:15 am 01:15 Clear 53 11.8 48 8.9 83 83 Calm 30.30 1026 10 16 0.00 0.00
1:35 am 01:35 Clear 51 10.5 46 8 85 85 Calm 30.30 1026 10 16 0.00 0.00
1:55 am 01:55 Clear 49 9.7 45 7.2 85 85 NNE 3 6 30.30 1026 10 16 0.00 0.00
2:15 am 02:15 Clear 49 9.6 45 7.3 86 86 N 3 6 30.33 1027 10 16 0.00 0.00
2:35 am 02:35 Clear 49 9.6 45 7.2 85 85 Calm 30.30 1026 10 16 0.00 0.00
2:55 am 02:55 Clear 49 9.6 45 7.4 86 86 N 5 7 30.30 1026 10 16 0.00 0.00
3:15 am 03:15 Clear 49 9.6 46 7.5 87 87 N 3 6 30.33 1027 10 16 0.00 0.00
3:35 am 03:35 Clear 49 9.6 46 7.5 87 87 NNE 3 6 30.33 1027 10 16 0.00 0.00
3:55 am 03:55 undefined 49 9.6 46 7.5 87 87 Calm 30.33 1027 N/A 0.00 0.00
4:15 am 04:15 Clear 49 9.6 46 7.5 87 87 NE 3 6 30.33 1027 10 16 0.00 0.00
4:35 am 04:35 Clear 49 9.6 46 7.5 87 87 Calm 30.33 1027 10 16 0.00 0.00
4:55 am 04:55 Clear 49 9.6 46 7.5 87 87 Calm 30.33 1027 10 16 0.00 0.00
5:15 am 05:15 Clear 49 9.6 46 7.5 87 87 Calm 30.36 1028 10 16 0.00 0.00
5:35 am 05:35 undefined 49 9.6 45 7.4 86 86 Calm 30.36 1028 N/A 0.00 0.00
5:55 am 05:55 undefined 49 9.6 45 7.3 86 86 Calm 30.36 1028 N/A 0.00 0.00
6:15 am 06:15 undefined 49 9.6 45 7.3 86 86 Calm 30.36 1028 N/A 0.00 0.00
6:35 am 06:35 Sunny 49 9.7 46 7.5 86 86 Calm 30.36 1028 10 16 0.00 0.00
6:55 am 06:55 Partly Cloudy 51 10.4 47 8.2 86 86 NE 3 6 30.36 1028 10 16 0.00 0.00
7:15 am 07:15 Partly Cloudy 53 11.6 47 8.6 82 82 N 3 6 30.39 1029 10 16 0.00 0.00
7:35 am 07:35 Sunny 55 12.5 47 8.5 77 77 Calm 30.39 1029 10 16 0.00 0.00
7:55 am 07:55 Sunny 55 12.5 47 8.2 75 75 NE 5 7 30.39 1029 10 16 0.00 0.00
8:15 am 08:15 Sunny 57 13.8 47 8.3 70 70 NNE 3 6 30.39 1029 10 16 0.00 0.00
8:35 am 08:35 Sunny 60 15.3 46 7.9 62 62 Calm 30.42 1030 10 16 0.00 0.00
8:55 am 08:55 Sunny 60 15.3 47 8.1 62 62 Calm 30.42 1030 10 16 0.00 0.00
9:15 am 09:15 Sunny 61 16.2 48 8.7 61 61 Calm 30.42 1030 10 16 0.00 0.00
9:35 am 09:35 Sunny 63 17 46 7.5 54 54 Calm 30.42 1030 10 16 0.00 0.00
9:55 am 09:55 Sunny 67 19.4 48 9.1 52 52 Calm 30.42 1030 10 16 0.00 0.00
10:15 am 10:15 Sunny 69 20.7 50 10.1 51 51 Calm 30.39 1029 10 16 0.00 0.00
10:35 am 10:35 Sunny 69 20.8 50 10 50 50 Calm 30.39 1029 10 16 0.00 0.00
10:55 am 10:55 Sunny 69 20.8 48 9 47 47 Calm 30.39 1029 10 16 0.00 0.00
11:15 am 11:15 Sunny 69 20.8 48 8.9 47 47 Calm 30.39 1029 10 16 0.00 0.00
11:35 am 11:35 Sunny 72 22.3 50 10.2 46 46 Calm 30.39 1029 10 16 0.00 0.00
11:55 am 11:55 Sunny 74 23.6 51 10.5 44 44 Calm 30.39 1029 10 16 0.00 0.00
12:15 pm 12:15 Sunny 74 23.6 49 9.4 41 41 WSW 5 7 30.36 1028 10 16 0.00 0.00
12:35 pm 12:35 Sunny 75 23.9 47 8.2 37 37 WSW 3 6 30.36 1028 10 16 0.00 0.00
12:55 pm 12:55 Sunny 77 25.1 47 8.1 34 34 WSW 8 13 30.36 1028 10 16 0.00 0.00
1:15 pm 13:15 Sunny 77 25.1 44 6.4 30 30 W 5 7 30.36 1028 10 16 0.00 0.00
1:35 pm 13:35 Sunny 77 25.1 42 5.7 29 29 WSW 7 11 30.36 1028 10 16 0.00 0.00
1:55 pm 13:55 Sunny 77 25.1 42 5.3 28 28 WSW 6 9 30.36 1028 10 16 0.00 0.00
2:15 pm 14:15 Sunny 77 25.1 39 4 26 26 SSW 5 7 30.36 1028 10 16 0.00 0.00
2:35 pm 14:35 Sunny 78 25.3 40 4.2 26 26 WNW 3 6 30.33 1027 10 16 0.00 0.00
2:55 pm 14:55 Sunny 80 26.5 38 3.6 23 23 SW 6 9 30.33 1027 10 16 0.00 0.00
3:15 pm 15:15 Sunny 80 26.5 36 2.4 21 21 S 7 11 30.33 1027 10 16 0.00 0.00
3:35 pm 15:35 Sunny 80 26.5 38 3.1 22 22 SW 8 13 30.33 1027 10 16 0.00 0.00
3:55 pm 15:55 Sunny 80 26.5 37 2.8 22 22 WNW 3 6 30.33 1027 10 16 0.00 0.00
4:15 pm 16:15 Sunny 80 26.5 37 2.8 22 22 W 5 7 30.30 1026 10 16 0.00 0.00
4:35 pm 16:35 Sunny 80 26.5 38 3.3 22 22 SW 6 9 30.30 1026 10 16 0.00 0.00
4:55 pm 16:55 Sunny 80 26.5 35 1.7 20 20 SSW 3 6 30.30 1026 10 16 0.00 0.00
5:15 pm 17:15 Sunny 80 26.5 36 2 20 20 Calm 30.30 1026 10 16 0.00 0.00
5:35 pm 17:35 Sunny 80 26.5 36 2 20 20 E 3 6 30.27 1025 10 16 0.00 0.00
5:55 pm 17:55 Sunny 80 26.5 35 1.7 20 20 SW 7 11 30.27 1025 10 16 0.00 0.00
6:15 pm 18:15 Sunny 80 26.5 38 3.4 23 23 SW 5 7 30.27 1025 10 16 0.00 0.00
6:35 pm 18:35 Sunny 80 26.5 37 2.6 21 21 SW 5 7 30.27 1025 10 16 0.00 0.00
6:55 pm 18:55 Sunny 80 26.5 36 2.3 21 21 Calm 30.27 1025 10 16 0.00 0.00
7:15 pm 19:15 Sunny 79 25.9 35 1.5 20 20 SW 8 13 30.24 1024 10 16 0.00 0.00
7:35 pm 19:35 Sunny 77 25.1 36 2 22 22 SSW 7 11 30.24 1024 10 16 0.00 0.00
7:55 pm 19:55 Sunny 77 25.1 36 2 22 22 SSE 6 9 30.24 1024 10 16 0.00 0.00
8:15 pm 20:15 Sunny 76 24.4 37 2.8 24 24 SE 5 7 30.24 1024 10 16 0.00 0.00
8:35 pm 20:35 Sunny 74 23.6 37 3 26 26 SE 5 7 30.24 1024 10 16 0.00 0.00
8:55 pm 20:55 Clear 74 23.6 38 3.5 27 27 SE 5 7 30.24 1024 10 16 0.00 0.00
9:15 pm 21:15 Clear 72 22.1 45 7 38 38 Calm 30.27 1025 10 16 0.00 0.00
9:35 pm 21:35 Clear 63 17.2 50 10 63 63 Calm 30.30 1026 10 16 0.00 0.00
9:55 pm 21:55 Clear 60 15.5 49 9.6 68 68 Calm 30.30 1026 10 16 0.00 0.00
10:15 pm 22:15 Clear 61 16 49 9.6 66 66 Calm 30.30 1026 10 16 0.00 0.00
10:35 pm 22:35 Clear 60 15.3 48 9 66 66 Calm 30.30 1026 10 16 0.00 0.00
10:55 pm 22:55 Clear 60 15.3 49 9.5 69 69 Calm 30.30 1026 10 16 0.00 0.00
11:15 pm 23:15 Clear 57 13.8 48 9 73 73 Calm 30.30 1026 10 16 0.00 0.00
11:35 pm 23:35 Clear 60 15.3 50 10.1 71 71 Calm 30.30 1026 10 16 0.00 0.00
11:55 pm 23:55 Clear 57 13.8 49 9.3 74 74 Calm 30.30 1026 10 16 0.00 0.00

Powered by AerisWeather